Regional Weather Roundup
Issued by NWS Kansas City/Pleasant Hill, MO

Home | Current Version | Previous Version | Text Only | Print | Product List | Glossary On
Versions: 1 2 3 4 5 6 7 8 9 10 11 12 13 14 15 16 17 18 19 20 21 22 23 24 25 26 27 28 29 30 31 32 33 34 35 36 37 38 39 40 41 42 43 44 45 46 47 48 49 50
038
ASUS43 KEAX 110510
RWREAX

WEATHER ROUNDUP FOR EASTERN KANSAS AND NORTHWEST MISSOURI
NATIONAL WEATHER SERVICE KANSAS CITY/PLEASANT HILL MO
1100 PM CST SAT DEC 10 2016

KSZ040-057-103>105-MOZ028-029-037-043-110600-
...KANSAS CITY METROPOLITAN AREA...

CITY           SKY/WX    TMP DP  RH WIND       PRES   REMARKS
K.C. INTL      CLOUDY    38  19  46 S10       29.98F WCI  31
K.C. DOWNTOWN  CLOUDY    40  22  48 VRB7      29.99F
LEES SUMMIT    CLOUDY    38  22  52 S13       30.00F WCI  30
OLATHE - IXD   CLOUDY    39  20  46 S16       29.98F WCI  30
OLATHE - OJC   CLOUDY    39  20  46 S13       29.98F WCI  31
LAWRENCE       CLOUDY    36  22  56 SE9       29.97F WCI  29

$$

MOZ001>008-011>017-020>025-030>033-038>040-044>046-053-054-110600-
...NORTHERN AND CENTRAL MISSOURI...

CITY           SKY/WX    TMP DP  RH WIND       PRES   REMARKS
ST. JOSEPH     CLOUDY    35  20  54 SE10      29.97F WCI  27
MOSBY          CLOUDY    36  23  60 SE7       30.01F WCI  30
WARRENSBURG    CLOUDY    36  21  55 SE12      30.04F WCI  27
WHITEMAN AFB   CLOUDY    37  20  49 S9        30.04R WCI  30
CLINTON        CLOUDY    37  19  48 S12       30.06S WCI  30
SEDALIA        CLOUDY    37  18  46 S9        30.08R WCI  30
WARSAW         NOT AVBL
CHILLICOTHE      N/A     35  19  52 SE10      30.04F WCI  27
KIRKSVILLE     CLOUDY    32  18  56 SE14      30.07F WCI  22

$$

MOZ041-047>049-056>058-063>065-088>090-097-110600-
...EASTERN AND SOUTHERN MISSOURI...

CITY           SKY/WX    TMP DP  RH WIND       PRES   REMARKS
ST. LOUIS INTL CLOUDY    36  18  48 S15       30.18F WCI  27
SPIRIT OF STL  CLOUDY    36  17  46 S7        30.18F WCI  30
COLUMBIA       CLOUDY    35  16  45 SE14      30.10S WCI  26
JEFFERSON CITY CLOUDY    37  16  42 SE8       30.13F WCI  31
ROLLA          CLOUDY    34  18  52 S16G23    30.11F WCI  24
OSAGE BEACH    CLOUDY    36  18  48 S9G18     30.11R WCI  29
SPRINGFIELD    CLOUDY    37  19  48 S17G25    30.05F WCI  27
BRANSON        CLOUDY    37  19  48 SE12G18   30.10F WCI  30
JOPLIN         CLOUDY    44  24  45 S15       30.03S
WEST PLAINS    CLOUDY    34  22  61 S13G20    30.18F WCI  25

$$

IAZ060-094-KSZ022-034>040-054-083-096-NEZ052-066-093-110600-
...KANSAS...SOUTHEAST NEBRASKA AND IOWA...

CITY           SKY/WX    TMP DP  RH WIND       PRES   REMARKS
TOPEKA         CLOUDY    38  22  52 SE8       29.94F WCI  32
MANHATTAN      CLOUDY    35  23  61 S6        29.88F WCI  30
EMPORIA        CLOUDY    37  24  59 S15       29.91F WCI  28
CHANUTE        CLOUDY    42  28  57 S18       29.96F WCI  34
WICHITA        CLOUDY    37  29  72 S18       29.84F WCI  27
OMAHA          CLOUDY    31  20  63 SE14      29.91F WCI  21
LINCOLN        CLOUDY    33  21  61 SE12      29.86F WCI  24
FALLS CITY     CLOUDY    33  21  61 SE9       29.92F WCI  25
LAMONI         CLOUDY    31  18  58 SE13      29.99F WCI  21
DES MOINES     CLOUDY    27  19  72 E8        30.02F WCI  19

$$





USA.gov is the U.S. government's official web portal to all federal, state and local government web resources and services.